DGTMR ESNC-ENKB

Flight info

Callsign DGTMR
Flight time 1h 11m
Altitude 5500
Route VFR
Aircraft DA42/L-DGV/A

Departure

Time 2026-04-15 12:38
Airport Hedlanda Airfield (ESNC)

Arrival

Time 2026-04-15 13:50
Airport Kristiansund Airport, Kvernberget (ENKB)
Time Latitude Longitude Altitude Speed Heading
2026-04-15 12:34 62.41039 13.74566 1468 ft 0 kts 78°
2026-04-15 12:35 62.41042 13.74579 1468 ft 1 kts 42°
2026-04-15 12:36 62.41054 13.74533 1468 ft 8 kts 257°
2026-04-15 12:36 62.41013 13.74359 1469 ft 16 kts 239°
2026-04-15 12:36 62.40953 13.74119 1468 ft 21 kts 242°
2026-04-15 12:36 62.40867 13.73796 1466 ft 28 kts 238°
2026-04-15 12:37 62.40804 13.73529 1464 ft 12 kts 236°
2026-04-15 12:37 62.40792 13.73527 1465 ft 0 kts 57°
2026-04-15 12:37 62.40815 13.73613 1466 ft 31 kts 59°
2026-04-15 12:38 62.41025 13.74393 1476 ft 82 kts 62°
2026-04-15 12:38 62.41264 13.75434 1821 ft 77 kts 66°
2026-04-15 12:38 62.41517 13.76545 2129 ft 86 kts 56°
2026-04-15 12:38 62.42099 13.76875 2521 ft 101 kts 339°
2026-04-15 12:39 62.42451 13.75638 2909 ft 107 kts 264°
2026-04-15 12:39 62.42403 13.73900 3055 ft 125 kts 258°
2026-04-15 12:39 62.42293 13.71931 3181 ft 138 kts 256°
2026-04-15 12:39 62.42123 13.69821 3275 ft 147 kts 255°
2026-04-15 12:40 62.41946 13.67589 3273 ft 159 kts 258°
2026-04-15 12:40 62.41801 13.65155 3198 ft 169 kts 259°
2026-04-15 12:40 62.41662 13.62647 3276 ft 167 kts 262°
2026-04-15 12:40 62.41645 13.60158 3381 ft 165 kts 267°
2026-04-15 12:41 62.41650 13.57684 3507 ft 163 kts 267°
2026-04-15 12:41 62.41665 13.55281 3706 ft 157 kts 268°
2026-04-15 12:41 62.41713 13.52962 3906 ft 152 kts 271°
2026-04-15 12:41 62.41819 13.50717 4116 ft 149 kts 273°
2026-04-15 12:42 62.41935 13.48516 4326 ft 147 kts 273°
2026-04-15 12:42 62.42052 13.46327 4499 ft 148 kts 273°
2026-04-15 12:42 62.42174 13.44042 4499 ft 158 kts 273°
2026-04-15 12:42 62.42309 13.41686 4491 ft 162 kts 274°
2026-04-15 12:43 62.42475 13.39256 4498 ft 164 kts 275°
2026-04-15 12:43 62.42643 13.36788 4499 ft 168 kts 275°
2026-04-15 12:43 62.42814 13.34288 4501 ft 169 kts 275°
2026-04-15 12:43 62.42987 13.31764 4499 ft 170 kts 275°
2026-04-15 12:44 62.43160 13.29231 4502 ft 171 kts 275°
2026-04-15 12:44 62.43343 13.26685 4507 ft 172 kts 275°
2026-04-15 12:44 62.43540 13.24139 4511 ft 172 kts 275°
2026-04-15 12:44 62.43683 13.21587 4506 ft 170 kts 268°
2026-04-15 12:45 62.43724 13.19085 4505 ft 168 kts 266°
2026-04-15 12:45 62.43748 13.16566 4500 ft 167 kts 266°
2026-04-15 12:45 62.43771 13.14045 4508 ft 169 kts 266°
2026-04-15 12:45 62.43795 13.11503 4508 ft 170 kts 266°
2026-04-15 12:46 62.43793 13.08945 4508 ft 172 kts 264°
2026-04-15 12:46 62.43764 13.06369 4499 ft 171 kts 264°
2026-04-15 12:46 62.43734 13.03816 4500 ft 170 kts 264°
2026-04-15 12:46 62.43714 13.01248 4502 ft 172 kts 264°
2026-04-15 12:47 62.43696 12.98675 4505 ft 172 kts 264°
2026-04-15 12:47 62.43678 12.96095 4504 ft 172 kts 264°
2026-04-15 12:47 62.43653 12.93510 4500 ft 172 kts 264°
2026-04-15 12:47 62.43628 12.90923 4505 ft 173 kts 264°
2026-04-15 12:48 62.43714 12.88306 4502 ft 178 kts 280°
2026-04-15 12:48 62.44087 12.85739 4506 ft 180 kts 287°
2026-04-15 12:48 62.44531 12.83212 4498 ft 179 kts 289°
2026-04-15 12:48 62.45015 12.80735 4503 ft 179 kts 291°
2026-04-15 12:49 62.45533 12.78296 4500 ft 178 kts 291°
2026-04-15 12:49 62.46065 12.75887 4500 ft 178 kts 293°
2026-04-15 12:49 62.46620 12.73509 4499 ft 176 kts 294°
2026-04-15 12:49 62.47187 12.71166 4498 ft 175 kts 296°
2026-04-15 12:50 62.47761 12.68830 4497 ft 177 kts 296°
2026-04-15 12:50 62.48345 12.66485 4503 ft 177 kts 296°
2026-04-15 12:50 62.48927 12.64134 4501 ft 178 kts 296°
2026-04-15 12:50 62.49504 12.61808 4504 ft 177 kts 296°
2026-04-15 12:51 62.50097 12.59436 4501 ft 177 kts 298°
2026-04-15 12:51 62.50721 12.57157 4521 ft 176 kts 298°
2026-04-15 12:51 62.51380 12.54889 4518 ft 179 kts 300°
2026-04-15 12:51 62.52044 12.52658 4650 ft 174 kts 296°
2026-04-15 12:52 62.52538 12.50353 4776 ft 168 kts 285°
2026-04-15 12:52 62.52918 12.47994 4912 ft 164 kts 281°
2026-04-15 12:52 62.53264 12.45631 5047 ft 165 kts 281°
2026-04-15 12:52 62.53612 12.43258 5180 ft 166 kts 281°
2026-04-15 12:53 62.53959 12.40866 5320 ft 168 kts 281°
2026-04-15 12:53 62.54309 12.38430 5442 ft 170 kts 281°
2026-04-15 12:53 62.54667 12.35973 5495 ft 174 kts 281°
2026-04-15 12:53 62.55029 12.33450 5498 ft 177 kts 281°
2026-04-15 12:54 62.55549 12.30990 5502 ft 183 kts 297°
2026-04-15 12:54 62.56255 12.28672 5508 ft 186 kts 300°
2026-04-15 12:54 62.57021 12.26349 5482 ft 190 kts 302°
2026-04-15 12:54 62.57785 12.24041 5497 ft 188 kts 301°
2026-04-15 12:55 62.58541 12.21750 5502 ft 186 kts 301°
2026-04-15 12:55 62.59285 12.19501 5503 ft 186 kts 302°
2026-04-15 12:55 62.60039 12.17225 5503 ft 186 kts 301°
2026-04-15 12:55 62.60785 12.14944 5491 ft 184 kts 302°
2026-04-15 12:56 62.61521 12.12671 5492 ft 184 kts 301°
2026-04-15 12:56 62.62258 12.10400 5489 ft 183 kts 302°
2026-04-15 12:56 62.62847 12.07983 5488 ft 180 kts 288°
2026-04-15 12:56 62.63321 12.05483 5475 ft 177 kts 287°
2026-04-15 12:57 62.63774 12.03054 5490 ft 172 kts 287°
2026-04-15 12:57 62.64192 12.00616 5495 ft 173 kts 283°
2026-04-15 12:57 62.64533 11.98078 5490 ft 176 kts 279°
2026-04-15 12:57 62.64855 11.95508 5492 ft 177 kts 279°
2026-04-15 12:58 62.65176 11.92922 5491 ft 177 kts 279°
2026-04-15 12:58 62.65496 11.90333 5498 ft 177 kts 279°
2026-04-15 12:58 62.65801 11.87777 5486 ft 175 kts 272°
2026-04-15 12:58 62.65982 11.85174 5482 ft 172 kts 264°
2026-04-15 12:59 62.65882 11.80076 5480 ft 168 kts 256°
2026-04-15 12:59 62.65805 11.77549 5480 ft 167 kts 256°
2026-04-15 12:59 62.65753 11.74996 5476 ft 170 kts 258°
2026-04-15 13:00 62.65717 11.72426 5479 ft 170 kts 258°
2026-04-15 13:00 62.65674 11.69858 5471 ft 170 kts 257°
2026-04-15 13:00 62.65629 11.67296 5470 ft 170 kts 257°
2026-04-15 13:00 62.65586 11.64721 5470 ft 170 kts 257°
2026-04-15 13:01 62.65543 11.62139 5475 ft 171 kts 257°
2026-04-15 13:01 62.65495 11.59536 5469 ft 173 kts 257°
2026-04-15 13:01 62.65446 11.56917 5472 ft 174 kts 257°
2026-04-15 13:01 62.65392 11.54309 5452 ft 170 kts 258°
2026-04-15 13:02 62.65323 11.51773 5454 ft 166 kts 257°
2026-04-15 13:02 62.65257 11.49271 5453 ft 166 kts 257°
2026-04-15 13:02 62.65204 11.46773 5450 ft 165 kts 257°
2026-04-15 13:02 62.65155 11.44293 5450 ft 164 kts 257°
2026-04-15 13:03 62.65106 11.41817 5452 ft 164 kts 257°
2026-04-15 13:03 62.65056 11.39359 5454 ft 166 kts 257°
2026-04-15 13:03 62.64997 11.36848 5455 ft 167 kts 257°
2026-04-15 13:03 62.64929 11.34313 5454 ft 168 kts 257°
2026-04-15 13:04 62.64865 11.31777 5451 ft 167 kts 257°
2026-04-15 13:04 62.64807 11.29255 5453 ft 167 kts 257°
2026-04-15 13:04 62.64746 11.26725 5456 ft 168 kts 257°
2026-04-15 13:04 62.64690 11.24199 5481 ft 167 kts 257°
2026-04-15 13:05 62.64628 11.21684 5480 ft 167 kts 257°
2026-04-15 13:05 62.64562 11.19156 5481 ft 168 kts 257°
2026-04-15 13:05 62.64495 11.16615 5480 ft 168 kts 257°
2026-04-15 13:05 62.64426 11.14077 5502 ft 167 kts 256°
2026-04-15 13:06 62.64369 11.11558 5501 ft 166 kts 257°
2026-04-15 13:06 62.64317 11.09051 5500 ft 166 kts 257°
2026-04-15 13:06 62.64261 11.06544 5502 ft 166 kts 257°
2026-04-15 13:06 62.64202 11.04032 5499 ft 166 kts 257°
2026-04-15 13:07 62.64147 11.01516 5507 ft 167 kts 257°
2026-04-15 13:07 62.64098 10.98997 5496 ft 167 kts 257°
2026-04-15 13:07 62.64050 10.96510 5500 ft 166 kts 257°
2026-04-15 13:07 62.64000 10.94000 5493 ft 166 kts 257°
2026-04-15 13:08 62.63958 10.91514 5487 ft 165 kts 257°
2026-04-15 13:08 62.63910 10.89029 5485 ft 164 kts 257°
2026-04-15 13:08 62.63862 10.86553 5492 ft 164 kts 256°
2026-04-15 13:08 62.63793 10.84082 5488 ft 163 kts 255°
2026-04-15 13:09 62.63709 10.81617 5489 ft 164 kts 255°
2026-04-15 13:09 62.63625 10.79155 5476 ft 163 kts 255°
2026-04-15 13:09 62.63544 10.76761 5518 ft 155 kts 255°
2026-04-15 13:09 62.63461 10.74383 5498 ft 159 kts 255°
2026-04-15 13:10 62.63372 10.71977 5504 ft 160 kts 255°
2026-04-15 13:10 62.63285 10.69558 5505 ft 161 kts 255°
2026-04-15 13:10 62.63190 10.67109 5494 ft 164 kts 255°
2026-04-15 13:10 62.63115 10.64616 5488 ft 164 kts 256°
2026-04-15 13:11 62.63051 10.62153 5483 ft 163 kts 256°
2026-04-15 13:11 62.62986 10.59691 5487 ft 164 kts 256°
2026-04-15 13:11 62.62918 10.57235 5483 ft 162 kts 256°
2026-04-15 13:11 62.62852 10.54788 5483 ft 162 kts 256°
2026-04-15 13:12 62.62780 10.52341 5481 ft 162 kts 256°
2026-04-15 13:12 62.62707 10.49922 5488 ft 163 kts 256°
2026-04-15 13:12 62.62631 10.47469 5488 ft 163 kts 256°
2026-04-15 13:12 62.62559 10.45002 5482 ft 163 kts 255°
2026-04-15 13:13 62.62499 10.42547 5484 ft 162 kts 256°
2026-04-15 13:13 62.62435 10.40080 5491 ft 163 kts 256°
2026-04-15 13:13 62.62367 10.37589 5508 ft 167 kts 256°
2026-04-15 13:13 62.62293 10.35088 5485 ft 163 kts 256°
2026-04-15 13:14 62.62227 10.32661 5485 ft 159 kts 256°
2026-04-15 13:14 62.62167 10.30277 5488 ft 158 kts 256°
2026-04-15 13:14 62.62108 10.27898 5491 ft 158 kts 256°
2026-04-15 13:14 62.62046 10.25497 5491 ft 160 kts 256°
2026-04-15 13:15 62.61979 10.23086 5490 ft 159 kts 256°
2026-04-15 13:15 62.61915 10.20709 5483 ft 156 kts 256°
2026-04-15 13:15 62.61857 10.18374 5500 ft 155 kts 256°
2026-04-15 13:15 62.61802 10.16064 5499 ft 155 kts 256°
2026-04-15 13:16 62.61745 10.13716 5497 ft 156 kts 256°
2026-04-15 13:16 62.61688 10.11349 5503 ft 158 kts 256°
2026-04-15 13:16 62.61625 10.08951 5503 ft 160 kts 256°
2026-04-15 13:16 62.61559 10.06531 5493 ft 161 kts 255°
2026-04-15 13:17 62.61478 10.04109 5493 ft 161 kts 255°
2026-04-15 13:17 62.61392 10.01672 5489 ft 162 kts 255°
2026-04-15 13:17 62.61308 9.99260 5477 ft 158 kts 255°
2026-04-15 13:17 62.61230 9.96907 5480 ft 154 kts 254°
2026-04-15 13:18 62.61162 9.94613 5494 ft 151 kts 255°
2026-04-15 13:18 62.61096 9.92308 5491 ft 154 kts 255°
2026-04-15 13:18 62.61023 9.89978 5488 ft 155 kts 255°
2026-04-15 13:18 62.60948 9.87646 5492 ft 155 kts 255°
2026-04-15 13:19 62.60873 9.85311 5495 ft 155 kts 255°
2026-04-15 13:19 62.60796 9.82967 5493 ft 155 kts 255°
2026-04-15 13:19 62.60718 9.80645 5492 ft 153 kts 255°
2026-04-15 13:19 62.60644 9.78350 5495 ft 155 kts 255°
2026-04-15 13:20 62.60568 9.76007 5471 ft 157 kts 256°
2026-04-15 13:20 62.60553 9.73624 5475 ft 158 kts 258°
2026-04-15 13:20 62.60549 9.71219 5478 ft 160 kts 258°
2026-04-15 13:20 62.60543 9.68791 5477 ft 163 kts 258°
2026-04-15 13:21 62.60532 9.66310 5477 ft 165 kts 259°
2026-04-15 13:21 62.60469 9.63842 5474 ft 162 kts 254°
2026-04-15 13:21 62.60316 9.61426 5474 ft 161 kts 253°
2026-04-15 13:21 62.60097 9.59072 5488 ft 157 kts 251°
2026-04-15 13:22 62.59878 9.56781 5499 ft 154 kts 252°
2026-04-15 13:22 62.59663 9.54503 5499 ft 154 kts 251°
2026-04-15 13:22 62.59451 9.52241 5500 ft 155 kts 252°
2026-04-15 13:22 62.59226 9.49951 5500 ft 155 kts 252°
2026-04-15 13:23 62.58993 9.47669 5502 ft 155 kts 251°
2026-04-15 13:23 62.58764 9.45374 5431 ft 157 kts 251°
2026-04-15 13:23 62.58536 9.43048 5351 ft 158 kts 251°
2026-04-15 13:23 62.58362 9.40669 5278 ft 162 kts 255°
2026-04-15 13:24 62.58208 9.38225 5209 ft 166 kts 256°
2026-04-15 13:24 62.58127 9.36522 5165 ft 170 kts 259°
2026-04-15 13:24 62.58034 9.33955 5075 ft 171 kts 259°
2026-04-15 13:24 62.58004 9.31390 4980 ft 171 kts 261°
2026-04-15 13:25 62.58075 9.28820 4976 ft 171 kts 270°
2026-04-15 13:25 62.58153 9.26309 4999 ft 165 kts 266°
2026-04-15 13:25 62.58158 9.23802 5007 ft 168 kts 263°
2026-04-15 13:25 62.58142 9.21249 4999 ft 168 kts 262°
2026-04-15 13:26 62.58002 9.18750 5001 ft 164 kts 248°
2026-04-15 13:26 62.57579 9.16483 4987 ft 161 kts 234°
2026-04-15 13:26 62.56885 9.14600 4967 ft 158 kts 224°
2026-04-15 13:26 62.56419 9.12505 4985 ft 152 kts 250°
2026-04-15 13:27 62.56461 9.10173 5007 ft 162 kts 282°
2026-04-15 13:27 62.56994 9.07946 4993 ft 174 kts 297°
2026-04-15 13:27 62.57668 9.05673 4887 ft 184 kts 298°
2026-04-15 13:27 62.58296 9.03257 4746 ft 183 kts 292°
2026-04-15 13:28 62.58805 9.00727 4606 ft 183 kts 288°
2026-04-15 13:28 62.59385 8.98248 4470 ft 184 kts 298°
2026-04-15 13:28 62.60121 8.95981 4330 ft 184 kts 302°
2026-04-15 13:28 62.60891 8.93780 4186 ft 181 kts 303°
2026-04-15 13:29 62.61549 8.91493 4037 ft 172 kts 281°
2026-04-15 13:29 62.61950 8.89090 3973 ft 165 kts 290°
2026-04-15 13:29 62.62451 8.86848 3969 ft 166 kts 299°
2026-04-15 13:29 62.62986 8.84633 3889 ft 166 kts 292°
2026-04-15 13:30 62.63492 8.82362 3769 ft 167 kts 292°
2026-04-15 13:30 62.64018 8.80112 3631 ft 171 kts 292°
2026-04-15 13:30 62.64565 8.77808 3511 ft 172 kts 291°
2026-04-15 13:30 62.64932 8.75379 3455 ft 165 kts 278°
2026-04-15 13:31 62.65233 8.72996 3466 ft 163 kts 279°
2026-04-15 13:31 62.65537 8.70615 3452 ft 164 kts 279°
2026-04-15 13:31 62.65835 8.68236 3452 ft 162 kts 279°
2026-04-15 13:31 62.66127 8.65867 3465 ft 164 kts 279°
2026-04-15 13:32 62.66412 8.63438 3458 ft 167 kts 278°
2026-04-15 13:32 62.66711 8.60971 3285 ft 172 kts 279°
2026-04-15 13:32 62.67051 8.58469 2983 ft 178 kts 280°
2026-04-15 13:32 62.67535 8.56020 2970 ft 167 kts 302°
2026-04-15 13:33 62.68426 8.54479 2951 ft 167 kts 333°
2026-04-15 13:33 62.69498 8.53647 2987 ft 162 kts 345°
2026-04-15 13:33 62.70579 8.53055 2994 ft 158 kts 347°
2026-04-15 13:33 62.71665 8.52575 2922 ft 160 kts 351°
2026-04-15 13:34 62.72765 8.52407 2850 ft 159 kts
2026-04-15 13:34 62.73893 8.52475 2713 ft 164 kts
2026-04-15 13:34 62.75010 8.52820 2688 ft 162 kts
2026-04-15 13:34 62.76139 8.52815 2580 ft 166 kts 353°
2026-04-15 13:35 62.77224 8.52123 2444 ft 164 kts 334°
2026-04-15 13:35 62.78215 8.51036 2406 ft 153 kts 335°
2026-04-15 13:35 62.79180 8.50218 2480 ft 146 kts 343°
2026-04-15 13:35 62.80165 8.49883 2501 ft 146 kts
2026-04-15 13:36 62.81188 8.49918 2512 ft 146 kts
2026-04-15 13:36 62.82191 8.49862 2605 ft 148 kts 359°
2026-04-15 13:36 62.83239 8.49751 2586 ft 153 kts 358°
2026-04-15 13:36 62.84316 8.49394 2479 ft 158 kts 347°
2026-04-15 13:37 62.85367 8.48884 2500 ft 156 kts 348°
2026-04-15 13:37 62.86421 8.48306 2483 ft 156 kts 343°
2026-04-15 13:37 62.87433 8.47497 2578 ft 153 kts 337°
2026-04-15 13:37 62.88424 8.46583 2675 ft 156 kts 334°
2026-04-15 13:38 62.89421 8.45609 2695 ft 155 kts 331°
2026-04-15 13:38 62.90352 8.44483 2729 ft 153 kts 326°
2026-04-15 13:38 62.91250 8.43230 2729 ft 153 kts 323°
2026-04-15 13:38 62.92150 8.41925 2694 ft 156 kts 323°
2026-04-15 13:39 62.93010 8.40547 2782 ft 150 kts 321°
2026-04-15 13:39 62.93891 8.39285 2771 ft 154 kts 324°
2026-04-15 13:39 62.94788 8.37950 2773 ft 156 kts 322°
2026-04-15 13:39 62.95667 8.36542 2800 ft 155 kts 318°
2026-04-15 13:40 62.96507 8.35068 2808 ft 157 kts 318°
2026-04-15 13:40 62.97420 8.33541 2602 ft 169 kts 320°
2026-04-15 13:40 62.98342 8.32044 2696 ft 159 kts 316°
2026-04-15 13:40 62.99167 8.30370 2593 ft 163 kts 311°
2026-04-15 13:41 62.99936 8.28645 2620 ft 156 kts 305°
2026-04-15 13:41 63.00599 8.26787 2635 ft 153 kts 302°
2026-04-15 13:41 63.01350 8.25138 2662 ft 154 kts 320°
2026-04-15 13:41 63.02227 8.23777 2652 ft 155 kts 325°
2026-04-15 13:42 63.03157 8.22574 2745 ft 153 kts 337°
2026-04-15 13:42 63.04224 8.21978 2636 ft 159 kts 351°
2026-04-15 13:42 63.05298 8.21659 2687 ft 154 kts 352°
2026-04-15 13:42 63.06285 8.20905 2722 ft 153 kts 325°
2026-04-15 13:43 63.07048 8.19255 2637 ft 156 kts 300°
2026-04-15 13:43 63.07418 8.17071 2630 ft 150 kts 272°
2026-04-15 13:43 63.07414 8.14853 2733 ft 140 kts 263°
2026-04-15 13:43 63.07338 8.12693 2718 ft 145 kts 260°
2026-04-15 13:44 63.07228 8.10453 2705 ft 145 kts 260°
2026-04-15 13:44 63.07173 8.08161 2577 ft 152 kts 265°
2026-04-15 13:44 63.07139 8.05828 2550 ft 152 kts 266°
2026-04-15 13:44 63.07191 8.03466 2434 ft 158 kts 271°
2026-04-15 13:45 63.07336 8.01052 2312 ft 158 kts 276°
2026-04-15 13:45 63.07571 7.98708 2183 ft 156 kts 281°
2026-04-15 13:45 63.07868 7.96484 2087 ft 147 kts 285°
2026-04-15 13:47 63.09034 7.83888 1178 ft 90 kts 251°
2026-04-15 13:47 63.08953 7.82533 1082 ft 90 kts 257°
2026-04-15 13:47 63.08834 7.81131 920 ft 96 kts 250°
2026-04-15 13:48 63.08664 7.79722 889 ft 94 kts 250°
2026-04-15 13:48 63.08747 7.78348 906 ft 93 kts 303°
2026-04-15 13:48 63.09294 7.77644 939 ft 92 kts 352°
2026-04-15 13:48 63.09936 7.77587 757 ft 91 kts
2026-04-15 13:49 63.10440 7.78018 610 ft 71 kts 50°
2026-04-15 13:49 63.10697 7.78982 450 ft 77 kts 83°
2026-04-15 13:49 63.10843 7.80034 359 ft 73 kts 78°
2026-04-15 13:49 63.10995 7.81172 235 ft 77 kts 76°
2026-04-15 13:50 63.11123 7.82055 206 ft 43 kts 68°
2026-04-15 13:50 63.11191 7.82487 209 ft 15 kts 65°
2026-04-15 13:50 63.11278 7.82551 209 ft 9 kts 358°
2026-04-15 13:50 63.11316 7.82663 214 ft 16 kts 78°
2026-04-15 13:51 63.11363 7.82803 213 ft 11 kts 50°
2026-04-15 13:51 63.11394 7.82844 207 ft 3 kts 213°
2026-04-15 13:51 63.11393 7.82843 207 ft 0 kts 183°